Location: Sungai Bunut
(2.6333°N, 113.7333°E)
Time: 17:21:32
(UTC+00:00)

Tiros 1 despin weight - Pass Details

Date: 12 December 2023
Orbit: 581 x 624 km, 48.2° (Epoch: 03 March)

Event Time Altitude Azimuth Distance (km) Brightness Sun altitude
Rises 15:52:21 0° 329° (NNW) 2,790 - -68.6°
Reaches altitude 10° 15:54:39 10° 333° (NNW) 1,898 - -68.7°
Maximum altitude 15:58:54 54° 51° (NE) 721 - -69.0°
Drops below altitude 10° 16:03:13 10° 128° (SE) 1,930 - -69.2°
Sets 16:05:34 0° 133° (SE) 2,843 - -69.3°
